Regional Weather Roundup
Issued by NWS

Home | Current Version | Previous Version | Graphics & Text | Print | Product List | Glossary Off
Versions: 1 2 3 4 5 6 7 8 9 10 11 12 13 14 15 16 17 18 19 20 21 22 23 24 25 26 27 28 29 30 31 32 33 34 35 36 37 38 39 40 41 42 43 44 45 46 47 48 49 50

000
ASUS43 KMKX 011921
RWRWI

WISCONSIN REGIONAL WEATHER ROUNDUP
NATIONAL WEATHER SERVICE MILWAUKEE/SULLIVAN WI
200 PM CDT TUE SEP 01 2015

NOTE: "FAIR" INDICATES FEW OR NO CLOUDS BELOW 12,000 FEET WITH NO
SIGNIFICANT WEATHER AND/OR OBSTRUCTIONS TO VISIBILITY.

WIZ001-002-006>008-014>016-023>028-012000-
NORTHWEST WISCONSIN

CITY           SKY/WX    TMP DP  RH WIND       PRES   REMARKS
SUPERIOR ARPT  MOSUNNY   81  72  73 W3        29.88S HX  85
ASHLAND        CLOUDY    81  74  79 VRB3      29.90F HX  86
HAYWARD        PTSUNNY   82  70  66 S12       29.92S HX  86
SIREN          PTSUNNY   85  70  61 S7        29.90F HX  89
CUMBERLAND     PTSUNNY   81  68  65 SW6       29.93S HX  83
RICE LAKE      PTSUNNY   82  69  65 S5        29.94S HX  86
CHETEK         PTSUNNY  N/A N/A N/A S6        29.92F
LADYSMITH      PTSUNNY   82  69  63 S6        29.96R HX  86
EAU CLAIRE     MOSUNNY   86  70  58 S10       29.91S HX  90
MENOMONIE      MOSUNNY   86  70  59 S6        29.91S HX  90
NEW RICHMOND   PTSUNNY   84  69  61 S6        29.91S HX  87
OSCEOLA        PTSUNNY   84  69  60 S7        29.93S HX  87
$$

WIZ003>005-009-010-017-018-012000-
NORTH CENTRAL WISCONSIN

CITY           SKY/WX    TMP DP  RH WIND       PRES   REMARKS
MANITOWISH WTR PTSUNNY   78  68  69 SW7       29.96S HX  80
ARBOR VITAE    PTSUNNY   82  67  60 SW10      29.96S HX  85
WOODRUFF       PTSUNNY   82  67  60 SW10      29.96S HX  85
RHINELANDER    MOSUNNY   81  66  60 SW10      29.97F HX  83
EAGLE RIVER    PTSUNNY   81  65  57 W12       29.96S HX  82
LAND O LAKES   PTSUNNY   82  65  57 SW7       29.96F HX  84
PHILLIPS       PTSUNNY   79  68  69 SW6       29.96R HX  81
TOMAHAWK       MOSUNNY   81  66  60 SW6       29.97S HX  83
MEDFORD        PTSUNNY   82  70  68 SW9       29.96S HX  85
MERRILL        MOSUNNY   84  71  64 SW12      29.96S HX  88
$$

WIZ029-030-035-036-043>047-012000-
CENTRAL WISCONSIN

CITY           SKY/WX    TMP DP  RH WIND       PRES   REMARKS
WAUSAU         MOSUNNY   84  67  56 S10       29.95S HX  86
MOSINEE        NOT AVBL
MARSHFIELD     MOSUNNY   85  66  53 SW9       29.96S HX  87
STEVENS POINT  SUNNY     84  66  53 SW13G18   29.97S HX  86
WAUPACA        MOSUNNY   90  68  48 SW9       29.96S HX  93
WAUTOMA        MOSUNNY   89  69  51 SW13G18   29.96F HX  93
WISC RAPIDS    SUNNY     86  67  52 S12       29.97S HX  89
CAMP DOUGLAS   MOSUNNY   88  73  62 S8        29.95S HX  96
$$

WIZ011>013-019>022-031-037>040-048>050-012000-
NORTHEAST WISCONSIN

CITY           SKY/WX    TMP DP  RH WIND       PRES   REMARKS
ANTIGO         MOSUNNY   84  66  54 SW12G18   29.98S HX  86
SHAWANO        CLOUDY    86  70  58 SW7       29.95S HX  90
OCONTO         MOSUNNY   84  76  77 SE8       29.93F HX  92
STURGEON BAY   PTSUNNY   81  72  74 S10       29.98S HX  84
GREEN BAY      PTSUNNY   86  71  60 SW13      29.95F HX  91
MANITOWOC      MOSUNNY   79  71  76 MISG      29.98R HX  82
APPLETON       PTSUNNY   84  68  58 S10       29.96S HX  87
CLINTONVILLE   MOSUNNY   86  64  48 SW10      29.94F HX  87
OSHKOSH        MOSUNNY   86  69  56 VRB7G17   29.97S HX  90
$$

WIZ032>034-041-042-053>061-012000-
SOUTHWEST WISCONSIN

CITY           SKY/WX    TMP DP  RH WIND       PRES   REMARKS
LA CROSSE      SUNNY     88  74  63 S9        29.92S HX  96
SPARTA         MOSUNNY   88  68  51 S12       29.94F HX  92
VIROQUA          N/A     86  71  61 S9        29.98S HX  91
BOSCOBEL       SUNNY     90  73  57 S10       29.95F HX  98
PRAIRIE DU CHI MOSUNNY   86  70  58 SE10      29.95S HX  90
PLATTEVILLE    SUNNY     85  75  71 S10       29.99F HX  93
$$

WIZ056-057-062-063-064-067-068-012000-
SOUTH CENTRAL WISCONSIN

CITY           SKY/WX    TMP DP  RH WIND       PRES   REMARKS
REEDSBURG      MOSUNNY   87  72  60 S9        29.96S HX  94
BARABOO/DELLS  MOSUNNY   88  67  48 S12       29.97S HX  91
LONE ROCK      SUNNY     87  72  60 S14       29.97S HX  93
MINERAL POINT  SUNNY     88  72  58 S12       30.00S HX  94
MADISON        PTSUNNY   87  70  56 S14       29.98F HX  92
MIDDLETON      MOSUNNY   89  67  47 S10       29.99S HX  92
WATERTOWN      MOSUNNY   88  72  59 S9        29.98F HX  94
MONROE         MOSUNNY   86  72  62 S15G22    30.00F HX  92
JANESVILLE     MOSUNNY   90  70  51 S12       29.99F HX  95
$$

WIZ051-052-058>065-066-070>072-012000-
SOUTHEAST WISCONSIN

CITY           SKY/WX    TMP DP  RH WIND       PRES   REMARKS
MILWAUKEE      PTSUNNY   89  68  49 SW13G23   29.99F HX  93
WAUKESHA       MOSUNNY   84  66  54 SW14      30.01F HX  86
MILWAUKEE/TIMM MOSUNNY   88  63  42 SW112     30.00F HX  88
RACINE         MOSUNNY   83  71  67 S14       30.02F HX  87
BURLINGTON     MOSUNNY   86  70  58 S7        30.01S HX  90
KENOSHA        PTSUNNY   88  72  58 S12       30.01F HX  94
FOND DU LAC    MOSUNNY   86  69  56 SW10      29.98S HX  90
SHEBOYGAN      SUNNY     87  70  56 SW13G21   29.98S HX  92
WEST BEND      MOSUNNY   86  64  48 SW10G17   30.00S HX  87
JUNEAU         MOSUNNY   86  69  57 S12       30.00F HX  90
$$

LSZ147-162-012000-
LAKE SUPERIOR

STATION/POSITION TIME  TEMP    WIND        PRES    WAVE
                       AIR SEA DIR/SP/G            HT/PER
                 (UTC) (F)     (DEG/KT/KT) (MB)    (FT/S)
W MID LAKE BUOY  1850   60 55  220/  6/  6 1012.1S   0
DEVILS ISLAND    1900   68     230/  7/  8 1012.1F
PORT WING        1800   70     280/  6/  8 1012.5S
SAXON HARBOR     1800           CALM  / 21 1011.9F
$$

LMZ867-665-643>646-012000-
LAKE MICHIGAN

STATION/POSITION TIME  TEMP    WIND        PRES    WAVE
                       AIR SEA DIR/SP/G            HT/PER
                 (UTC) (F)     (DEG/KT/KT) (MB)    (FT/S)
CHAMBERS ISLAND  1800   80     190/  4/ 11 1013.9F
S GREEN BAY BUOY 1800   72 66  200/  6/  6 1015.6F
N MID LAKE BUOY  1850   67 65  190/ 12/ 12 1014.1F   1/ 3
NORTHPORT PIER   1800   72     150/  6/ 10 1014.2F
SISTER BAY       1819   83     160/ 10/ 12   N/A
ALGOMA LAKESHORE 1814           CALM  /  3   N/A
KEWAUNEE LAKESHO 1900   55     170/ 15/ 17 1013.9F
SHEBOYGAN LAKESH 1900   69     180/ 21/ 21 1015.1F
PORT WASHINGTON  1840   66     160/  6/  9 1016.3S
ATWATER BUOY     1900   61 50  180/  8/ 10 1016.9F
MILWAUKEE LAKESH 1910   67     150/ 14/ 15   N/A
S MID LAKE BUOY  1850   72 70  170/ 10/ 12 1016.1F   1/ 3
KENOSHA   LAKESH 1900   71     180/ 13/ 18 1015.6F
$$

TC  - TEMPERATURE IN CELSIUS
VSB - VISIBILITY IN STATUTE MILES
WCI - WIND CHILL INDEX
HX  - HEAT INDEX



USA.gov is the U.S. government's official web portal to all federal, state and local government web resources and services.